• In Deutschland
  • Länderverzeichnis
  • Für 7 Tage
  • Wassertemperatur
  • Satellitenkarten
  • Wetterkarte
  • Widgets
  • user-avatar
    Anmelden

    Stündliche Wetter Bad Bramstedt

    Heute, 19 Oktober, Donnerstag

    Zeit Temperatur Niederschläge Wind Luftdruck Luftfeuchtigkeit
    00:00 +10°C° 0 mm 1 m/S 707 mmHg 85%
    01:00 +9°C° 0 mm 1 m/S 707 mmHg 86%
    02:00 +9°C° 0 mm 1 m/S 707 mmHg 85%
    03:00 +9°C° 0 mm 1 m/S 707 mmHg 85%
    04:00 +9°C° 0 mm 1 m/S 707 mmHg 84%
    05:00 +9°C° 0 mm 1 m/S 707 mmHg 83%
    06:00 +8°C° 0 mm 1 m/S 707 mmHg 83%
    07:00 +8°C° 0 mm 1 m/S 707 mmHg 79%
    08:00 +10°C° 0 mm 1 m/S 707 mmHg 73%
    09:00 +13°C° 0 mm 1 m/S 708 mmHg 67%
    10:00 +15°C° 0 mm 1 m/S 708 mmHg 60%
    11:00 +16°C° 0 mm 2 m/S 708 mmHg 57%
    12:00 +17°C° 0 mm 2 m/S 708 mmHg 53%
    13:00 +18°C° 0 mm 2 m/S 708 mmHg 49%
    14:00 +18°C° 0 mm 2 m/S 708 mmHg 54%
    15:00 +17°C° 0 mm 2 m/S 708 mmHg 58%
    16:00 +17°C° 0 mm 2 m/S 707 mmHg 62%
    17:00 +15°C° 0 mm 2 m/S 707 mmHg 67%
    18:00 +13°C° 0 mm 2 m/S 707 mmHg 73%
    19:00 +12°C° 0 mm 1 m/S 707 mmHg 78%
    20:00 +11°C° 0 mm 1 m/S 707 mmHg 78%
    21:00 +11°C° 0 mm 1 m/S 707 mmHg 79%
    22:00 +11°C° 0 mm 1 m/S 707 mmHg 79%
    23:00 +10°C° 0 mm 1 m/S 707 mmHg 79%

    Morgen, 20 Oktober, Freitag

    Zeit Temperatur Niederschläge Wind Luftdruck Luftfeuchtigkeit
    00:00 +10°C° 0 mm 1 m/S 707 mmHg 79%
    01:00 +10°C° 0 mm 1 m/S 707 mmHg 78%
    02:00 +10°C° 0 mm 1 m/S 707 mmHg 78%
    03:00 +10°C° 0 mm 1 m/S 707 mmHg 77%
    04:00 +9°C° 0 mm 1 m/S 707 mmHg 76%
    05:00 +9°C° 0 mm 1 m/S 707 mmHg 75%
    06:00 +9°C° 0 mm 1 m/S 707 mmHg 75%
    07:00 +9°C° 0 mm 1 m/S 707 mmHg 74%
    08:00 +11°C° 0 mm 1 m/S 708 mmHg 69%
    09:00 +13°C° 0 mm 2 m/S 708 mmHg 63%
    10:00 +15°C° 0 mm 2 m/S 708 mmHg 58%
    11:00 +16°C° 0 mm 2 m/S 709 mmHg 57%
    12:00 +16°C° 0 mm 3 m/S 709 mmHg 55%
    13:00 +17°C° 0 mm 3 m/S 709 mmHg 54%
    14:00 +16°C° 0 mm 3 m/S 709 mmHg 60%
    15:00 +15°C° 0 mm 2 m/S 709 mmHg 66%
    16:00 +15°C° 0 mm 2 m/S 708 mmHg 72%
    17:00 +14°C° 0,1 mm 2 m/S 708 mmHg 76%
    18:00 +13°C° 0,1 mm 2 m/S 709 mmHg 81%
    19:00 +12°C° 0,1 mm 2 m/S 709 mmHg 85%
    20:00 +10°C° 0 mm 2 m/S 709 mmHg 87%
    21:00 +10°C° 0 mm 2 m/S 709 mmHg 90%
    22:00 +9°C° 0 mm 2 m/S 709 mmHg 92%
    23:00 +9°C° 0 mm 2 m/S 709 mmHg 93%

    übermorgen, 21 Oktober, Samstag

    Zeit Temperatur Niederschläge Wind Luftdruck Luftfeuchtigkeit
    00:00 +9°C° 0 mm 2 m/S 709 mmHg 93%
    01:00 +9°C° 0 mm 2 m/S 709 mmHg 94%
    02:00 +9°C° 0 mm 2 m/S 709 mmHg 95%
    03:00 +9°C° 0 mm 2 m/S 709 mmHg 95%
    04:00 +9°C° 0 mm 2 m/S 709 mmHg 96%
    05:00 +9°C° 0 mm 2 m/S 709 mmHg 95%
    06:00 +9°C° 0 mm 2 m/S 708 mmHg 95%
    07:00 +10°C° 0 mm 2 m/S 708 mmHg 94%
    08:00 +11°C° 0 mm 3 m/S 709 mmHg 88%
    09:00 +12°C° 0 mm 3 m/S 709 mmHg 83%
    10:00 +13°C° 0 mm 4 m/S 709 mmHg 77%
    11:00 +14°C° 0 mm 4 m/S 709 mmHg 73%
    12:00 +15°C° 0 mm 4 m/S 708 mmHg 69%
    13:00 +17°C° 0 mm 4 m/S 708 mmHg 65%
    14:00 +17°C° 0 mm 3 m/S 708 mmHg 68%
    15:00 +16°C° 0 mm 3 m/S 708 mmHg 72%
    16:00 +16°C° 0 mm 2 m/S 707 mmHg 75%
    17:00 +15°C° 0 mm 2 m/S 707 mmHg 79%
    18:00 +14°C° 0 mm 2 m/S 707 mmHg 83%
    19:00 +13°C° 0 mm 2 m/S 707 mmHg 87%
    20:00 +13°C° 0,2 mm 2 m/S 707 mmHg 88%
    21:00 +13°C° 0,2 mm 2 m/S 708 mmHg 90%
    22:00 +13°C° 0,2 mm 2 m/S 708 mmHg 91%
    23:00 +11°C° 0,4 mm 3 m/S 708 mmHg 91%

    22 Oktober, Sonntag

    Zeit Temperatur Niederschläge Wind Luftdruck Luftfeuchtigkeit
    00:00 +10°C° 0,4 mm 3 m/S 708 mmHg 91%
    01:00 +10°C° 0,4 mm 4 m/S 708 mmHg 91%
    02:00 +8°C° 0,6 mm 4 m/S 708 mmHg 91%
    03:00 +8°C° 0,6 mm 4 m/S 708 mmHg 92%
    04:00 +7°C° 0,6 mm 4 m/S 708 mmHg 92%
    05:00 +8°C° 0,2 mm 3 m/S 708 mmHg 92%
    06:00 +8°C° 0,2 mm 3 m/S 708 mmHg 92%
    07:00 +8°C° 0,2 mm 3 m/S 708 mmHg 92%
    08:00 +8°C° 0,1 mm 3 m/S 709 mmHg 90%
    09:00 +7°C° 0,1 mm 4 m/S 709 mmHg 88%
    10:00 +7°C° 0,1 mm 4 m/S 709 mmHg 86%
    11:00 +7°C° 0,1 mm 4 m/S 709 mmHg 83%
    12:00 +8°C° 0,1 mm 4 m/S 709 mmHg 80%
    13:00 +8°C° 0,1 mm 4 m/S 708 mmHg 77%
    14:00 +7°C° 0 mm 4 m/S 708 mmHg 78%
    15:00 +7°C° 0 mm 4 m/S 708 mmHg 79%
    16:00 +8°C° 0 mm 3 m/S 708 mmHg 79%
    17:00 +7°C° 0 mm 3 m/S 708 mmHg 81%
    18:00 +7°C° 0 mm 3 m/S 708 mmHg 83%
    19:00 +5°C° 0 mm 3 m/S 708 mmHg 85%
    20:00 +5°C° 0 mm 3 m/S 709 mmHg 86%
    21:00 +5°C° 0 mm 3 m/S 709 mmHg 87%
    22:00 +4°C° 0 mm 3 m/S 709 mmHg 87%
    23:00 +4°C° 0 mm 3 m/S 709 mmHg 88%

    23 Oktober, Montag

    Zeit Temperatur Niederschläge Wind Luftdruck Luftfeuchtigkeit
    00:00 +4°C° 0 mm 3 m/S 709 mmHg 89%
    01:00 +4°C° 0 mm 3 m/S 709 mmHg 91%
    02:00 +4°C° 0,1 mm 3 m/S 709 mmHg 90%
    03:00 +4°C° 0,1 mm 3 m/S 710 mmHg 90%
    04:00 +5°C° 0,1 mm 3 m/S 710 mmHg 90%
    05:00 +5°C° 0 mm 3 m/S 710 mmHg 90%
    06:00 +4°C° 0 mm 3 m/S 710 mmHg 90%
    07:00 +4°C° 0 mm 3 m/S 711 mmHg 90%
    08:00 +5°C° 0 mm 3 m/S 711 mmHg 89%
    09:00 +5°C° 0 mm 3 m/S 711 mmHg 87%
    10:00 +6°C° 0 mm 4 m/S 712 mmHg 85%
    11:00 +6°C° 0 mm 4 m/S 712 mmHg 84%
    12:00 +6°C° 0 mm 4 m/S 712 mmHg 83%
    13:00 +7°C° 0 mm 4 m/S 712 mmHg 82%
    14:00 +8°C° 0,1 mm 3 m/S 712 mmHg 83%
    15:00 +8°C° 0,1 mm 3 m/S 712 mmHg 84%
    16:00 +8°C° 0,1 mm 3 m/S 713 mmHg 85%
    17:00 +7°C° 0,1 mm 3 m/S 713 mmHg 88%
    18:00 +7°C° 0,1 mm 3 m/S 713 mmHg 90%
    19:00 +5°C° 0,1 mm 3 m/S 714 mmHg 92%
    20:00 +6°C° 0 mm 2 m/S 714 mmHg 94%
    21:00 +5°C° 0 mm 2 m/S 714 mmHg 95%
    22:00 +5°C° 0 mm 2 m/S 714 mmHg 96%
    23:00 +5°C° 0,1 mm 2 m/S 714 mmHg 96%

    24 Oktober, Dienstag

    Zeit Temperatur Niederschläge Wind Luftdruck Luftfeuchtigkeit
    00:00 +5°C° 0,1 mm 2 m/S 714 mmHg 96%
    01:00 +6°C° 0,1 mm 2 m/S 714 mmHg 96%
    02:00 +6°C° 0,2 mm 2 m/S 714 mmHg 96%
    03:00 +7°C° 0,2 mm 1 m/S 714 mmHg 96%
    04:00 +7°C° 0,2 mm 1 m/S 714 mmHg 96%
    05:00 +7°C° 0,1 mm 1 m/S 714 mmHg 96%
    06:00 +7°C° 0,1 mm 1 m/S 714 mmHg 97%
    07:00 +7°C° 0,1 mm 1 m/S 714 mmHg 97%
    08:00 +8°C° 0 mm 1 m/S 715 mmHg 93%
    09:00 +9°C° 0 mm 1 m/S 715 mmHg 89%
    10:00 +11°C° 0 mm 1 m/S 716 mmHg 86%
    11:00 +12°C° 0 mm 1 m/S 716 mmHg 82%
    12:00 +12°C° 0 mm 1 m/S 716 mmHg 79%
    13:00 +13°C° 0 mm 1 m/S 716 mmHg 75%
    14:00 +13°C° 0 mm 1 m/S 716 mmHg 77%
    15:00 +12°C° 0 mm 1 m/S 716 mmHg 79%
    16:00 +12°C° 0 mm 1 m/S 716 mmHg 82%
    17:00 +11°C° 0 mm 1 m/S 716 mmHg 85%
    18:00 +10°C° 0 mm 1 m/S 716 mmHg 88%
    19:00 +10°C° 0 mm 1 m/S 717 mmHg 91%
    20:00 +9°C° 0 mm 1 m/S 717 mmHg 92%
    21:00 +8°C° 0 mm 1 m/S 717 mmHg 93%
    22:00 +8°C° 0 mm 1 m/S 717 mmHg 94%
    23:00 +7°C° 0 mm 1 m/S 717 mmHg 94%
    Mehr zeigen